Weather in Wavre

Belgium     50°42′55″N   4°37′03″E
temp.,
°C
wind,
m/s
gust,
m/s
humid.,
%
clouds,
%
prec.,
mm/h
press.,
hPa
HPBL,
m
23 june, wed
wed2323:00+12nne4997100 0.2 1019433
02:00+11nne41097100 0.2 1020436
05:00+11nne4995100 0.0 1020406
08:00+11nne4895100 0.1 1021388
11:00+11nne4792100 0.1 1021384
14:00+12nne3687100 0.1 1022427
17:00+16nne457295 0.0 1021789
20:00+15nne357895 0.0 1021544
24 june, thu
thu2423:00+13n388479 0.0 1022247
02:00+12nne3684100 0.0 1022216
05:00+12n3587100 0.0 1021174
08:00+12nne3589100 0.0 1021249
11:00+14nne3482100 0.0 1022381
14:00+17n3373100 0.0 1021604
17:00+19nnw2367100 0.0 1020957
20:00+17nnw467227 0.1 1020299
25 june, fri
fri2523:00+13nw3676100 0.0 1021180
02:00+13wnw2474100 0.0 1021112
05:00+10wsw236988 0.0 102046
08:00+12sw3586100 0.0 1020224
11:00+17sw566896 0.0 1019855
14:00+19sw566598 0.1 10191400
17:00+16sw677792 0.3 1019630
20:00+14sw4790100 0.5 1019404
26 june, sat
sat2623:00+13ssw2498100 0.8 1019169
02:00+13ssw239892 0.8 101961
05:00+12s2296100 0.0 101827
08:00+14se2393100 0.0 1018119
11:00+18se2375100 0.0 1018673
14:00+21sse336594 0.3 10171233
17:00+20sse1271100 1.8 1016167
20:00+18nne2283100 3.1 101635
27 june, sun
sun2723:00+16ene3391100 0.0 101653
02:00+14e369389 0.0 101498
05:00+14ese3588100 0.0 101370
08:00+17sse2688100 0.5 1013158
11:00+17e1291100 0.6 1013107
14:00+17se4895100 1.9 1013443
17:00+18sw2394100 1.9 1013256
20:00+17ne1197100 3.6 101296